Regional Weather Roundup
Issued by NWS Kansas City/Pleasant Hill, MO

Home | Current Version | Previous Version | Graphics & Text | Print | Product List | Glossary Off
Versions: 1 2 3 4 5 6 7 8 9 10 11 12 13 14 15 16 17 18 19 20 21 22 23 24 25 26 27

000
ASUS43 KEAX 181010
RWREAX

WEATHER ROUNDUP FOR EASTERN KANSAS AND NORTHWEST MISSOURI
NATIONAL WEATHER SERVICE KANSAS CITY/PLEASANT HILL MO
400 AM CST SAT NOV 18 2017

KSZ040-057-103>105-MOZ028-029-037-043-181100-
...KANSAS CITY METROPOLITAN AREA...

CITY           SKY/WX    TMP DP  RH WIND       PRES   REMARKS
K.C. INTL      CLOUDY    54  54 100 N22G29    29.42R FOG
K.C. DOWNTOWN  CLOUDY    58  54  86 N16G24    29.40R
LEES SUMMIT    CLOUDY    57  57 100 NE17      29.38S FOG
OLATHE - IXD   CLOUDY    56  56 100 N20G26    29.42R FOG
OLATHE - OJC   CLOUDY    57  57 100 N15       29.39R FOG
LAWRENCE       CLOUDY    56  54  93 NW24G31   29.44R FOG

$$

MOZ001>008-011>017-020>025-030>033-038>040-044>046-053-054-181100-
...NORTHERN AND CENTRAL MISSOURI...

CITY           SKY/WX    TMP DP  RH WIND       PRES   REMARKS
ST. JOSEPH     LGT RAIN  49  47  93 N24G35    29.51R
MOSBY          CLOUDY    55  54  94 N14       29.40R
WARRENSBURG    CLOUDY    57  55  94 N3        29.35F
WHITEMAN AFB   PTCLDY    60  59  96 N5        29.31F
CLINTON        CLOUDY    64  61  88 CALM      29.35S
SEDALIA        PTCLDY    64  63  96 SE3       29.36F
WARSAW         NOT AVBL
CHILLICOTHE      N/A     52  51  97 N17G29    29.42F
KIRKSVILLE     CLOUDY    48  48 100 N20G28    29.43F FOG

$$

MOZ041-047>049-056>058-063>065-088>090-097-181100-
...EASTERN AND SOUTHERN MISSOURI...

CITY           SKY/WX    TMP DP  RH WIND       PRES   REMARKS
ST. LOUIS INTL CLOUDY    64  60  87 S8        29.43F
SPIRIT OF STL  CLOUDY    64  61  90 SE3       29.42F
COLUMBIA       MOCLDY    64  61  90 S7        29.37F
JEFFERSON CITY CLOUDY    67  60  78 E5        29.37F
ROLLA          CLOUDY    67  62  84 S15       29.41F
OSAGE BEACH    CLOUDY    66  61  84 S8        29.38F
SPRINGFIELD    CLOUDY    71  61  70 SW23G31   29.41F
BRANSON        CLOUDY    70  61  73 SW12G23   29.49S
JOPLIN         CLOUDY    72  61  68 SW25G35   29.41S
WEST PLAINS    CLOUDY    67  62  84 S10       29.50F

$$

IAZ060-094-KSZ022-034>040-054-083-096-NEZ052-066-093-181100-
...KANSAS...SOUTHEAST NEBRASKA AND IOWA...

CITY           SKY/WX    TMP DP  RH WIND       PRES   REMARKS
TOPEKA         CLOUDY    52  52 100 N21G32    29.50R
MANHATTAN      LGT RAIN  48  44  86 N13G25    29.62R
EMPORIA        CLOUDY    51  49  92 NW24G39   29.50R FOG
CHANUTE        MOCLDY    56  52  86 W17G31    29.45R
WICHITA        CLOUDY    50  41  71 NW23G44   29.60R
OMAHA          LGT RAIN  40  36  86 N20G25    29.70R WCI  30
LINCOLN        LGT RAIN  41  38  89 N21       29.72R WCI  32
FALLS CITY     CLOUDY    45  41  86 N18G30    29.59R
LAMONI         LGT RAIN  45  43  93 N16G28    29.50F
DES MOINES     LGT RAIN  41  39  93 N13       29.58F WCI  34

$$





USA.gov is the U.S. government's official web portal to all federal, state and local government web resources and services.